Location: Biesendorf
(47.9126°N, 8.8122°E)
Time: 21:13:57
(UTC+00:00)

Daily predictions for brighter satellites

Satellite Brightness Start Highest point End
(mag) Time Altitude Azimuth Time Altitude Azimuth Time Altitude Azimuth
Cosmos 1814 Rocket 4.4 17:03:39 10° S 17:08:39 45° ESE 17:13:39 10° NNE
ATLAS 3B R/B 4.0 17:02:52 10° NW 17:10:20 51° WSW 17:17:21 10° S
NOSS 7 (A) 4.4 17:08:52 10° NW 17:11:45 76° NE 17:14:52 10° SE
Cosmos 1125 Rocket 4.3 17:08:27 10° N 17:13:01 30° NE 17:17:34 10° ESE
IRS-1C 4.2 17:07:44 10° SSE 17:13:04 88° WSW 17:18:26 10° NNW
YAOGAN 1 2.8 17:16:25 10° SE 17:20:30 46° ENE 17:24:35 10° N
Cosmos 2123 Rocket 4.0 17:14:58 10° S 17:21:17 78° E 17:27:36 10° NNE
Cosmos 1900 4.5 17:17:31 10° SW 17:22:37 84° NW 17:27:42 10° NE
NOSS 3-3 (C) 4.3 17:18:19 10° S 17:22:55 34° ESE 17:28:15 10° NE
Okean 2 Rocket 3.6 17:18:50 10° N 17:22:57 37° ENE 17:27:01 10° SE
Spot 4 Rocket 4.3 17:20:53 10° SE 17:25:45 47° ENE 17:30:38 10° N
Okean 1 Rocket 3.6 17:22:21 10° N 17:26:26 35° ENE 17:30:27 10° SE
COSMOS 2428 2.7 17:22:52 10° NNW 17:28:35 64° ENE 17:34:15 10° SE
Cosmos 1980 4.3 17:26:58 10° NNW 17:32:10 35° NE 17:37:19 10° ESE
ARIANE 5 R/B 3.3 17:27:18 10° S 17:32:21 59° WSW 17:37:23 10° NNW
Sich 1 Rocket 4.1 17:28:14 10° N 17:32:31 39° ENE 17:36:47 10° SE
Cosmos 158 Rocket 3.8 17:31:48 10° SSW 17:36:38 72° ESE 17:41:30 10° NNE
Cosmos 2237 Rocket 2.8 17:32:34 10° NNW 17:37:48 36° NE 17:43:00 10° ESE
Aureole 3 Rocket 3.5 17:34:02 10° N 17:37:52 30° ENE 17:40:57 10° SE
ATLAS 5 CENTAUR R/B 2.3 17:35:05 10° NW 17:39:19 60° SW 17:44:36 10° SSE
SeaSat 1 3.2 17:34:35 10° SSE 17:39:23 56° WSW 17:44:13 10° NW
Cosmos 192 4.2 17:34:44 10° NNW 17:39:38 70° ENE 17:44:29 10° SSE
Cosmos 1378 Rocket 3.5 17:35:31 10° S 17:39:50 88° E 17:44:09 10° N
USA 234 4.3 17:34:17 10° SSE 17:40:32 46° SW 17:46:49 10° WNW
Resurs 01 Rocket 2.1 17:36:50 10° SE 17:40:51 36° ENE 17:44:54 10° N
SKYMED 2 3.5 17:39:01 10° NNE 17:43:24 87° ESE 17:47:44 10° SSW
GP-B 3.4 17:39:25 10° S 17:43:45 70° W 17:48:08 10° N
Cosmos 2219 Rocket 3.9 17:42:23 10° NW 17:47:27 36° WSW 17:52:28 10° S
COSMO-SKYMED 1 2.5 17:43:38 10° NNE 17:47:42 56° E 17:51:44 10° S
Cosmos 2228 4.3 17:46:09 10° NNE 17:49:03 18° ENE 17:49:16 18° ENE
Cosmos 2292 Rocket 4.0 17:46:39 10° SSW 17:49:22 39° WNW 17:52:15 10° N
PSLV R/B 3.4 17:46:35 10° SSE 17:50:39 60° ENE 17:54:43 10° N
NOSS 3-3 (A) 3.7 17:46:32 10° SSW 17:51:34 63° SE 17:57:36 10° NE
Cosmos 2322 3.9 17:47:06 10° NNW 17:52:49 80° WSW 17:58:31 10° SSE
Resurs 1-3 3.7 17:50:05 10° S 17:54:22 77° WSW 17:58:41 10° NNW
USA 306 1.0 17:51:48 10° WNW 17:54:37 71° NNE 17:55:02 48° E
Cosmos 2016 Rocket 4.4 17:48:41 10° NNW 17:54:52 69° W 18:01:06 10° S
Cosmos 1025 Rocket 2.9 17:53:52 10° S 17:58:08 76° E 18:02:29 10° NNE
SJ-7 4.0 17:54:44 10° SSE 17:58:26 84° ENE 18:02:08 10° NNW
Cosmos 2285 Rocket 4.0 17:53:23 10° NNW 17:59:47 63° ENE 18:06:07 10° SE
SL-16 R/B 3.5 17:56:48 10° N 18:00:57 20° NE 18:02:27 18° ENE
Cosmos 1375 Rocket 4.5 17:56:20 10° SSW 18:02:37 68° ESE 18:09:04 10° NE
Cosmos 2227 Rocket 3.4 17:59:54 10° SE 18:03:35 20° ESE 18:03:35 20° ESE
SJ-6B 2.8 18:05:12 16° SE 18:07:37 41° ENE 18:10:54 10° N
SPOT 5 3.8 18:08:20 25° E 18:09:35 28° ENE 18:13:48 10° N
NOSS 3-4 (A) 4.0 18:03:34 10° NW 18:09:58 52° NE 18:15:10 20° ESE
NOSS 3-4 (C) 4.0 18:03:50 10° NW 18:10:14 52° NE 18:15:23 20° ESE
Cosmos 2233 Rocket 4.3 18:04:36 10° NNW 18:10:51 70° W 18:17:05 10° S
CZ-2D R/B 4.0 18:08:27 10° S 18:12:16 57° W 18:16:12 10° NNW
Cosmos 1674 Rocket 4.2 18:10:04 10° SSW 18:14:23 59° WNW 18:18:46 10° N
Cosmos 1315 Rocket 4.4 18:13:18 10° NNW 18:16:46 35° W 18:20:14 10° SSW
Cosmos 1513 Rocket 4.5 18:12:33 10° N 18:18:46 62° ENE 18:25:03 10° SSE
CZ-4 R/B 3.4 18:28:09 13° NNE 18:28:09 13° NNE 18:28:46 10° N
ATLAS 2AS CENTAUR R/B 4.3 18:20:19 10° WNW 18:25:52 25° NNW 18:31:15 10° NE
CZ-4B R/B 4.3 18:26:45 23° NE 18:26:45 23° NE 18:30:14 10° N
Helios 1A Rocket 4.0 18:28:45 22° SSE 18:28:45 22° SSE 18:30:05 10° S
Lacrosse 5 rocket 2.4 18:23:53 10° W 18:27:03 31° NNW 18:28:21 24° NNE
Atlas Centaur 2 4.4 18:23:03 10° SW 18:27:27 17° S 18:30:59 11° SE
Meteor 1-31 Rocket 4.4 18:32:59 19° NNE 18:32:59 19° NNE 18:34:09 10° N
CZ-4C R/B 2.2 18:28:00 10° SW 18:32:15 60° NW 18:36:09 18° NNE
IRAS Rocket 4.2 18:28:36 10° SSE 18:34:12 90° WSW 18:39:53 10° NNW
CARTOSAT-1 4.4 18:30:18 10° S 18:34:23 50° W 18:38:30 10° NNW
CRYOSAT 2 4.3 18:33:05 10° N 18:38:00 88° W 18:42:53 10° S
Tiangong 0.6 18:36:51 10° S 18:37:06 11° S 18:37:06 11° S
USA 267 4.0 18:41:48 23° NE 18:45:31 43° N 18:51:37 10° WNW
CSL-04 Debris 4.2 18:44:38 40° ESE 18:46:19 56° ENE 18:51:38 10° N
Cosmos 1464 Rocket 3.9 18:40:10 10° N 18:46:34 70° E 18:52:50 10° SSE
ERS-1 Rocket 4.4 18:48:48 23° NNE 18:48:48 23° NNE 18:51:13 10° N
Cosmos 2297 Rocket 2.1 18:42:37 10° SSW 18:48:17 88° WNW 18:52:37 18° NNE
CSL-04 Rocket 3.5 18:47:26 39° SE 18:49:14 63° ENE 18:54:28 10° N
Cosmos 1570 Rocket 3.9 18:43:58 10° SSW 18:49:15 83° ESE 18:52:48 21° NNE
Cosmos 2344 3.8 18:43:18 10° S 18:50:34 39° ESE 18:51:12 38° ESE
BREEZE-M DEB (TANK) 4.3 18:46:59 10° WNW 18:51:02 71° SSW 18:56:52 28° SE
Cosmos 1975 Rocket 3.6 18:47:39 10° S 18:50:38 42° SSE 18:50:38 42° SSE
Cosmos 1455 Rocket 3.4 18:47:50 10° NNW 18:52:05 62° W 18:56:19 10° S
DNEPR-1 R/B 4.0 18:49:06 10° NNW 18:53:50 57° NE 18:54:13 56° ENE
PAYLOAD B 4.3 19:05:27 57° ENE 19:05:27 57° ENE 19:10:43 10° N
Cosmos 2208 Rocket 3.8 19:01:12 10° SSW 19:06:26 84° ESE 19:07:29 58° NNE
Terra 3.8 19:11:53 17° N 19:11:53 17° N 19:13:07 10° N
NOSS 3-3 (C) 4.5 19:08:17 10° WSW 19:13:31 50° NW 19:16:44 26° NNE
Resurs 01 Rocket 3.7 19:13:37 10° SSW 19:17:17 26° W 19:20:59 10° NW
Cosmos 2263 Rocket 4.4 19:16:21 10° S 19:16:38 11° S 19:16:38 11° S
Cosmos 2237 Rocket 3.2 19:16:35 10° NW 19:21:57 44° WSW 19:25:52 18° S
Cosmos 44 Rocket 3.8 19:17:40 10° SW 19:21:21 52° SSW 19:21:21 52° SSW
Cosmos 773 Rocket 4.2 19:18:34 10° SSW 19:23:48 68° WNW 19:25:06 49° N
Cosmos 2228 4.0 19:22:17 10° NNW 19:25:36 42° WNW 19:25:36 42° WNW
Orbus 7S? 4.2 19:22:19 10° NW 19:28:58 63° W 19:28:58 63° W
Cosmos 2150 Rocket 4.4 19:28:46 10° NNW 19:33:50 56° WSW 19:33:58 56° WSW
Cosmos 2298 Rocket 4.4 19:29:22 10° NNW 19:34:35 60° WSW 19:34:42 60° WSW
SL-16 R/B 2.8 19:40:11 10° NNW 19:44:20 50° NNW 19:44:20 50° NNW
Cosmos 2227 Rocket 2.9 19:41:36 10° SW 19:45:30 45° SW 19:45:30 45° SW
SPOT 5 3.9 19:47:22 42° W 19:47:22 42° W 19:52:03 10° NNW
BREEZE-M DEB (TANK) 4.1 19:57:35 10° W 20:10:46 66° WSW 20:10:46 66° WSW
ATLAS 2AS CENTAUR R/B 4.3 20:13:59 10° NW 20:18:40 22° N 20:18:40 22° N
CZ-4C R/B 4.2 20:17:54 10° WNW 20:21:06 21° NNW 20:21:06 21° NNW
USA 267 4.3 20:29:08 39° NNW 20:29:08 39° NNW 20:33:51 10° WNW
Cosmos 2297 Rocket 4.4 20:28:59 10° W 20:33:08 20° NW 20:34:29 19° NNW
